Flag for Tunisia Weather past 2 weeks in Houmt Souk (Djerba), Tunisia

Now
86 °F

Passing clouds.


Feels Like: 102 °F
Forecast: 84 / 90 °F
Wind: 15 mph from Northeast

Location: Djerba Mellita

Current Time: Aug 3, 2015 at 8:27:37 PM

Latest Report: Aug 3, 2015 at 8:00 PM


Visibility: N/A

Pressure: 29.89 "Hg

Humidity: 84%

Dew point: 81 °F

Location of Houmt Souk (Djerba)Location

Historic Weather in Houmt Souk (Djerba) — Graph

°F

Houmt Souk (Djerba) temperature yesterday

Maximum temperature yesterday: 104 °F (at 4:30 PM)
Minimum temperature yesterday: 82 °F (at 6:30 AM)
Average temperature yesterday: 92 °F

Past Weeks' High & Low Weather Summary

 TemperatureHumidityPressure
High108 °F (Jul 31, 1:30 PM)94% (Jul 22, 3:30 AM)29.98 "Hg (Jul 22, 3:30 AM)
Low75 °F (Jul 22, 5:00 AM)14% (Jul 31, 1:30 PM)29.74 "Hg (Jul 31, 5:00 PM)
Average88 °F60%29.87 "Hg
* Reported Jul 19 7:00 PM — Aug 3 7:00 PM, Houmt Souk (Djerba), Weather by CustomWeather, © 2015

Note: Actual official high and low records may vary slightly from our data, if they occured in-between our weather recording intervals... More about our weather records

Advertising

Houmt Souk (Djerba) weather history for previous 24 hours

 ConditionsComfort  
Time TempWeatherWind HumidityBarometerVisibility
7:00 PM
Mon, Aug 3
88 °FSunny.13 mph79%29.86 "Hg10 mi
6:30 PM90 °FSunny.14 mph71%29.86 "Hg10 mi
6:00 PM91 °FSunny.15 mph63%29.86 "Hg10 mi
5:30 PM95 °FSunny.13 mph53%29.86 "Hg10 mi
5:00 PM93 °FSunny.13 mph59%29.86 "Hg10 mi
4:30 PM93 °FSunny.13 mph63%29.86 "Hg10 mi
4:00 PM93 °FPassing clouds.13 mph67%29.89 "HgN/A
3:30 PM91 °FSunny.14 mph71%29.89 "Hg10 mi
3:00 PM93 °FSunny.13 mph67%29.89 "Hg10 mi
2:30 PM93 °FPassing clouds.14 mph67%29.92 "HgN/A
2:00 PM93 °FPassing clouds.14 mph56%29.92 "HgN/A
1:00 PM97 °FPassing clouds.12 mph30%29.95 "HgN/A
12:00 PM93 °FPassing clouds.10 mph49%29.95 "HgN/A
11:30 AM93 °FPassing clouds.10 mph56%29.95 "Hg5 mi
10:30 AM93 °FPassing clouds.13 mph53%29.95 "Hg5 mi
10:00 AM95 °FPassing clouds.7 mph50%29.95 "Hg5 mi
9:30 AM93 °FPassing clouds.9 mph47%29.92 "Hg5 mi
9:00 AM90 °FPassing clouds.10 mph59%29.95 "Hg5 mi
8:30 AM91 °FPassing clouds.12 mph56%29.95 "Hg5 mi
8:00 AM90 °FPassing clouds.13 mph59%29.95 "Hg5 mi
7:30 AM88 °FPassing clouds.No wind62%29.92 "Hg5 mi
7:00 AM84 °FPassing clouds.3 mph70%29.89 "Hg5 mi
6:30 AM82 °FPassing clouds.2 mph70%29.89 "Hg5 mi
6:00 AM81 °FPassing clouds.No wind79%29.89 "Hg5 mi
5:00 AM81 °FPassing clouds.3 mph79%29.89 "Hg5 mi
4:00 AM82 °FPassing clouds.7 mph70%29.89 "Hg5 mi
3:30 AM82 °FPassing clouds.3 mph70%29.89 "Hg5 mi
3:00 AM84 °FPassing clouds.9 mph66%29.89 "Hg5 mi
2:30 AM84 °FPassing clouds.12 mph66%29.89 "Hg5 mi
2:00 AM84 °FPassing clouds.10 mph66%29.92 "Hg5 mi
1:30 AM86 °FPassing clouds.6 mph62%29.92 "Hg5 mi
1:00 AM86 °FPassing clouds.5 mph62%29.95 "Hg5 mi
12:30 AM88 °FPassing clouds.5 mph55%29.95 "Hg5 mi
12:00 AM90 °FPassing clouds.6 mph52%29.95 "HgN/A
11:30 PM
Sun, Aug 2
90 °FPassing clouds.12 mph55%29.95 "HgN/A
11:00 PM90 °FPassing clouds.10 mph59%29.98 "HgN/A
10:30 PM90 °FPassing clouds.12 mph46%29.98 "HgN/A
9:30 PM90 °FPassing clouds.12 mph49%29.92 "HgN/A
9:00 PM90 °FPassing clouds.14 mph46%29.92 "HgN/A
8:30 PM91 °FPassing clouds.12 mph41%29.92 "HgN/A
8:00 PM93 °FPassing clouds.12 mph36%29.92 "HgN/A
Weather by CustomWeather, © 2015

See weather overviewHow to use our weather pages